Home   Weather   Prince George   Past weeks

Flag for Canada Past Weather in Prince George, British Columbia, Canada — Yesterday and Last 2 Weeks

Now
39 °F

Overcast.


Feels Like: 37 °F
Forecast: 30 / 51 °F
Wind: 3 mph from South

Location: Prince George

Current Time: Apr 23, 2017 at 10:52:23 pm

Latest Report: Apr 23, 2017 at 10:00 pm


Visibility: 9 mi

Pressure: 29.81 "Hg (27.77 "Hg at 573m altitude)

Humidity: 87%

Dew Point: 36 °F

Location of Prince GeorgeLocation

Past Weather in Prince George — Graph

°F

Prince George Temperature Yesterday

Maximum temperature yesterday: 54 °F (at 1:00 pm)
Minimum temperature yesterday: 32 °F (at 4:00 am)
Average temperature yesterday: 43 °F

High & Low Weather Summary for the Past Weeks

 TemperatureHumidityPressure
High57 °F (Apr 21, 3:00 pm)100% (Apr 8, 9:09 pm)30.41 "Hg (Apr 8, 9:09 pm)
Low25 °F (Apr 10, 6:00 am)28% (Apr 20, 4:00 pm)29.61 "Hg (Apr 13, 2:00 pm)
Average39 °F77%29.98 "Hg
* Reported Apr 8 9:09 pm — Apr 23 9:00 pm, Prince George, Weather by CustomWeather, © 2017

Note: Actual official high and low records may vary slightly from our data, if they occured in-between our weather recording intervals... More about our weather records

Advertising

Prince George Weather History for the Previous 24 Hours

Scroll right to see more
 ConditionsComfort  
Time TempWeatherWind HumidityBarometerVisibility
9:00 pm
Sun, Apr 23
41 °FOvercast.5 mph81%29.81 "Hg9 mi
8:00 pm41 °FMostly cloudy.5 mph81%29.80 "Hg9 mi
7:00 pm43 °FCloudy.7 mph76%29.80 "Hg9 mi
6:00 pm43 °FOvercast.5 mph71%29.82 "Hg9 mi
5:00 pm43 °FMore clouds than sun.3 mph76%29.82 "Hg9 mi
4:00 pm43 °FMostly cloudy.3 mph71%29.83 "Hg9 mi
3:19 pm41 °FCloudy.6 mph87%29.84 "Hg9 mi
3:00 pm41 °FCloudy.8 mph81%29.85 "Hg9 mi
2:52 pm41 °FCloudy.6 mph81%29.84 "Hg9 mi
2:41 pm41 °FCloudy.5 mph87%29.84 "Hg9 mi
2:33 pm41 °FLight rain. Cloudy.6 mph81%29.85 "Hg9 mi
2:21 pm39 °FLight rain. Cloudy.7 mph87%29.85 "Hg9 mi
2:04 pm39 °FLight rain. Cloudy.6 mph93%29.85 "Hg9 mi
1:33 pm39 °FLight rain. Mostly cloudy.8 mph93%29.85 "Hg9 mi
1:20 pm39 °FLight rain. Mostly cloudy.8 mph87%29.85 "Hg7 mi
12:58 pm39 °FLight rain. Cloudy.6 mph93%29.85 "Hg9 mi
12:37 pm39 °FLight rain. Mostly cloudy.No wind93%29.85 "Hg9 mi
12:05 pm37 °FLight rain. Fog.3 mph100%29.86 "Hg5 mi
11:32 am36 °FLight rain. Fog.2 mph100%29.86 "Hg4 mi
11:12 am36 °FLight rain. Low clouds.5 mphN/A29.86 "Hg6 mi
11:00 am36 °FLight rain. Low clouds.5 mphN/A29.86 "Hg4 mi
10:40 am36 °FLight rain. Low clouds.3 mphN/A29.85 "Hg5 mi
10:14 am34 °FLight rain. Low clouds.3 mphN/A29.85 "Hg5 mi
10:02 am34 °FLight rain. Cloudy.3 mphN/A29.85 "Hg6 mi
9:34 am34 °FLight rain. Mostly cloudy.3 mphN/A29.83 "Hg9 mi
9:00 am34 °FLight rain. Low clouds.7 mphN/A29.83 "Hg9 mi
8:57 am34 °FLight rain. More clouds than sun.7 mphN/A29.83 "Hg9 mi
8:00 am32 °FLight rain. Low clouds.7 mphN/A29.83 "Hg5 mi
7:43 am32 °FLight rain. Low clouds.8 mphN/A29.83 "Hg3 mi
7:27 am32 °FLight rain. Mostly cloudy.8 mphN/A29.83 "Hg2 mi
7:18 am32 °FLight rain. Mostly cloudy.10 mphN/A29.83 "Hg1 mi
7:05 am32 °FLight snow. Mostly cloudy.9 mphN/A29.83 "Hg4 mi
6:41 am32 °FLight snow. Mostly cloudy.12 mphN/A29.83 "Hg4 mi
6:16 am32 °FLight snow. Mostly cloudy.12 mphN/A29.83 "Hg3 mi
6:09 am32 °FLight snow. Mostly cloudy.12 mphN/A29.83 "Hg1 mi
5:37 am32 °FLight snow. Mostly cloudy.13 mphN/A29.82 "Hg1 mi
5:00 am32 °FLight snow. Mostly cloudy.12 mphN/A29.82 "Hg4 mi
4:50 am32 °FLight snow. Mostly cloudy.12 mphN/A29.82 "Hg4 mi
4:36 am32 °FLight snow. Mostly cloudy.12 mphN/A29.82 "Hg5 mi
4:19 am34 °FLight mixture of precip. Low clouds.12 mphN/A29.82 "Hg9 mi
4:00 am34 °FLight rain. Mostly cloudy.12 mphN/A29.82 "Hg9 mi
3:00 am34 °FLight rain. Mostly cloudy.13 mphN/A29.83 "Hg9 mi
2:57 am34 °FLight rain. Mostly cloudy.12 mphN/A29.83 "Hg9 mi
2:34 am34 °FLight rain. Mostly cloudy.13 mph100%29.83 "Hg9 mi
2:00 am36 °FLight rain. Mostly cloudy.13 mph100%29.84 "Hg9 mi
1:00 am36 °FLight rain. Mostly cloudy.10 mph93%29.84 "Hg9 mi
12:20 am36 °FLight rain. Overcast.10 mph100%29.84 "Hg9 mi
12:05 am36 °FLight rain. Overcast.10 mph100%29.85 "Hg9 mi
11:30 pm
Sat, Apr 22
37 °FLight rain. Overcast.10 mph87%29.85 "Hg9 mi
11:00 pm37 °FLight rain. Overcast.10 mph81%29.86 "Hg9 mi
10:21 pm39 °FLight rain. Mostly cloudy.9 mph75%29.87 "Hg9 mi
10:00 pm39 °FLight rain. Mostly cloudy.10 mph70%29.86 "Hg9 mi
Weather by CustomWeather, © 2017

See weather overviewHow to use our weather pages